TimeEDT,TemperatureF,Dew PointF,Humidity,Sea Level PressureIn,VisibilityMPH,Wind Direction,Wind SpeedMPH,Gust SpeedMPH,PrecipitationIn,Events,Conditions,WindDirDegrees,DateUTC
12:56 AM,55.9,52.0,87,29.91,10.0,South,4.6,-,N/A,,Clear,180,2012-10-02 04:56:00
1:56 AM,55.9,52.0,87,29.91,10.0,South,5.8,-,N/A,,Clear,180,2012-10-02 05:56:00
2:56 AM,55.9,53.1,90,29.90,10.0,SSE,4.6,-,N/A,,Clear,160,2012-10-02 06:56:00
3:56 AM,55.9,52.0,87,29.92,10.0,South,3.5,-,N/A,,Clear,170,2012-10-02 07:56:00
4:56 AM,52.0,50.0,93,29.91,10.0,Calm,Calm,-,N/A,,Clear,0,2012-10-02 08:56:00
5:56 AM,54.0,50.0,86,29.92,10.0,Calm,Calm,-,N/A,,Clear,0,2012-10-02 09:56:00
6:56 AM,54.0,51.1,90,29.94,10.0,ENE,4.6,-,N/A,,Mostly Cloudy,60,2012-10-02 10:56:00
7:56 AM,55.9,52.0,87,29.94,10.0,ENE,3.5,-,N/A,,Overcast,60,2012-10-02 11:56:00
8:56 AM,59.0,54.0,83,29.95,10.0,Calm,Calm,-,0.00,Rain,Light Rain,0,2012-10-02 12:56:00
9:56 AM,62.1,55.0,78,29.95,10.0,Calm,Calm,-,0.00,,Overcast,0,2012-10-02 13:56:00
10:16 AM,62.6,55.4,77,29.96,10.0,Calm,Calm,-,N/A,,Overcast,0,2012-10-02 14:16:00
10:35 AM,62.6,55.4,77,29.96,10.0,South,3.5,-,N/A,,Overcast,170,2012-10-02 14:35:00
10:56 AM,62.1,54.0,75,29.96,10.0,SSE,5.8,-,N/A,,Overcast,150,2012-10-02 14:56:00
11:51 AM,62.6,55.4,77,29.95,10.0,SE,3.5,-,0.00,Rain,Light Rain,140,2012-10-02 15:51:00
11:56 AM,62.1,55.0,78,29.95,8.0,Variable,6.9,-,0.00,Rain,Light Rain,0,2012-10-02 15:56:00
12:47 PM,60.8,57.2,88,29.95,2.5,Calm,Calm,-,0.04,Rain,Light Rain,0,2012-10-02 16:47:00
12:54 PM,60.8,57.2,88,29.96,6.0,Calm,Calm,-,0.04,Rain,Light Rain,0,2012-10-02 16:54:00
12:56 PM,60.1,57.0,90,29.95,7.0,Calm,Calm,-,0.04,Rain,Light Rain,0,2012-10-02 16:56:00
1:56 PM,61.0,57.9,90,29.94,10.0,ENE,3.5,-,N/A,,Overcast,70,2012-10-02 17:56:00
2:23 PM,60.8,59.0,94,29.94,10.0,ENE,4.6,-,N/A,,Overcast,70,2012-10-02 18:23:00
2:44 PM,60.8,59.0,94,29.94,7.0,Calm,Calm,-,0.00,Rain,Light Rain,0,2012-10-02 18:44:00
2:56 PM,62.1,60.1,93,29.94,4.0,Calm,Calm,-,0.00,Rain,Light Rain,0,2012-10-02 18:56:00
3:56 PM,62.6,59.0,88,29.95,2.5,North,3.5,-,N/A,Rain,Rain,360,2012-10-02 19:56:00
4:29 PM,60.8,59.0,94,29.95,3.0,Calm,Calm,-,0.03,Rain,Light Rain,0,2012-10-02 20:29:00
4:56 PM,62.1,60.1,93,29.94,6.0,NE,4.6,-,0.03,,Overcast,40,2012-10-02 20:56:00
5:17 PM,60.8,60.8,100,29.94,7.0,NE,4.6,-,N/A,,Overcast,50,2012-10-02 21:17:00
5:56 PM,61.0,59.0,93,29.95,8.0,NNE,5.8,-,N/A,,Overcast,30,2012-10-02 21:56:00
6:56 PM,60.1,59.0,96,29.96,8.0,ENE,5.8,-,N/A,,Overcast,60,2012-10-02 22:56:00
7:56 PM,60.1,59.0,96,29.97,9.0,NE,4.6,-,N/A,,Overcast,50,2012-10-02 23:56:00
8:56 PM,60.8,59.0,94,29.99,9.0,NE,4.6,-,N/A,,Overcast,40,2012-10-03 00:56:00
9:56 PM,60.8,59.0,94,30.00,9.0,East,4.6,-,N/A,,Overcast,80,2012-10-03 01:56:00
10:56 PM,60.1,59.0,96,29.99,10.0,Calm,Calm,-,N/A,,Overcast,0,2012-10-03 02:56:00
11:24 PM,60.8,59.0,94,30.00,7.0,Calm,Calm,-,N/A,,Overcast,0,2012-10-03 03:24:00
11:56 PM,60.1,59.0,96,29.99,7.0,NE,3.5,-,N/A,,Overcast,40,2012-10-03 03:56:00